[[{"header":{"parameterUnit":"m.s-1","parameterCategory":1,"la1":30.2992,"la2":30.254,"lo1":-89.0895,"lo2":-89.0443,"dy":0.0025,"dx":0.0025,"nx":19,"ny":19,"refTime":"2026-03-23T03:00:00:Z","depth":0,"parameterNumber":2,"parameterNumberName":"U-component_of_WINDS"},"data":[0,0,0,3.5217,3.5221,3.5407,3.5408,3.5662,3.5664,0,0,0,0,0,0,0,0,0,0,0,3.5169,3.5171,3.5217,3.5222,3.5407,3.5408,3.5661,3.5664,0,0,0,0,0,0,0,0,0,0,0,3.5168,3.517,3.5172,3.5222,3.5407,3.5408,3.5661,3.5516,0,0,0,0,0,0,0,0,0,0,3.5333,3.5293,3.517,3.5172,3.5224,3.5407,3.5408,3.5508,3.5525,3.5583,0,3.5634,0,3.5653,3.5682,3.5683,0,0,0,3.5218,3.528,3.5324,3.5173,3.5225,3.5407,3.5322,3.5517,3.5536,3.5605,3.5638,3.5647,3.5657,3.5683,3.5685,3.6028,3.603,0,0,3.5208,3.5206,3.5311,3.5336,3.5305,3.5316,3.5328,3.5528,3.5565,3.5639,3.5653,3.5661,3.5685,3.5687,3.6027,3.6029,0,0,0,3.5181,3.5199,3.5238,3.5326,3.5358,3.5322,3.5335,3.5556,3.5569,3.5655,3.5664,3.5687,3.569,3.6025,3.6028,3.6112,0,0,0,3.5174,3.5184,3.5234,3.5235,3.5354,3.5459,3.5359,3.5555,3.5578,3.5663,3.5687,3.5692,3.6023,3.6026,3.6106,3.6153,0,0,0,3.5155,3.5181,3.521,3.5235,3.5314,3.5455,3.5479,3.556,3.5584,3.5683,3.5693,3.6021,3.6026,3.61,3.6143,3.6242,0,0,0,3.5134,3.5285,3.5211,3.5384,3.5312,3.5506,3.5478,3.5623,3.5719,3.5688,3.6023,3.6027,3.6098,3.6137,3.6235,3.6323,3.6359,0,0,3.5324,3.5308,3.541,3.5349,3.5555,3.5478,3.5698,3.5788,3.5801,3.5953,3.5961,3.6108,3.6142,3.624,3.6568,3.6596,0,0,0,3.547,3.5542,3.5597,3.5686,3.5757,3.5822,3.5879,3.5912,3.6041,3.5877,3.6171,3.6192,3.6249,3.6291,3.6316,3.6365,3.6047,3.6046,3.6046,3.5736,3.5742,3.5911,3.5939,3.6027,3.6083,3.6155,3.621,3.6193,3.6262,3.6307,3.6504,3.6553,3.6572,3.6623,3.6355,3.6355,3.6356,3.6356,3.6014,3.6118,3.6089,3.6242,3.6249,3.6379,3.6441,3.6424,3.6548,3.6471,3.6522,3.6437,3.6603,3.6648,3.6362,3.6361,3.636,3.636,3.6359,3.6188,3.6238,3.6275,3.6404,3.6505,3.653,3.6649,3.6652,3.6656,3.6707,3.6754,3.6752,3.675,3.6729,3.673,3.6731,3.6731,3.6732,3.6732,3.6352,3.6391,3.6489,3.6578,3.6635,3.6712,3.6772,3.683,3.6895,3.6888,3.6888,3.6863,3.6618,3.6556,3.6743,3.6741,3.674,3.6739,3.6738,3.6628,3.6566,3.6718,3.6775,3.688,3.6979,3.6982,3.71,3.7149,3.7208,3.7173,3.6992,3.6976,3.6957,3.6905,3.7171,3.7171,3.7171,3.7171,3.6773,3.6765,3.6921,3.7013,3.7104,3.7122,3.7296,3.7345,3.7386,3.7417,3.738,3.7312,3.7292,3.7289,3.7262,3.7213,3.7552,3.7553,3.7553,3.6942,3.6944,3.7089,3.7126,3.7208,3.728,3.7443,3.7553,3.7588,3.7569,3.7442,3.7426,3.7316,3.728,3.7256,3.7214,3.7125,0,0]},{"header":{"parameterUnit":"m.s-1","parameterCategory":1,"la1":30.2992,"la2":30.254,"lo1":-89.0895,"lo2":-89.0443,"dy":0.0025,"dx":0.0025,"nx":19,"ny":19,"refTime":"2026-03-23T03:00:00:Z","depth":0,"parameterNumber":3,"parameterNumberName":"V-component_of_WINDS"},"data":[0,0,0,1.5862,1.5863,1.5929,1.5929,1.602,1.6021,0,0,0,0,0,0,0,0,0,0,0,1.5845,1.5846,1.5862,1.5864,1.5929,1.5929,1.602,1.6021,0,0,0,0,0,0,0,0,0,0,0,1.5845,1.5846,1.5847,1.5864,1.5929,1.5929,1.602,1.5968,0,0,0,0,0,0,0,0,0,0,1.5903,1.5891,1.5846,1.5847,1.5864,1.5929,1.5929,1.5965,1.5971,1.5993,0,1.6012,0,1.6018,1.6027,1.6028,0,0,0,1.5862,1.5886,1.5901,1.5847,1.5865,1.5929,1.5899,1.5969,1.5975,1.6001,1.6013,1.6016,1.6019,1.6028,1.6028,1.6157,1.6157,0,0,1.5858,1.5859,1.5896,1.5905,1.5894,1.5897,1.5901,1.5973,1.5987,1.6013,1.6018,1.6021,1.6029,1.6029,1.6156,1.6157,0,0,0,1.5849,1.5857,1.587,1.5902,1.5913,1.5899,1.5904,1.5983,1.5987,1.6019,1.6022,1.6029,1.603,1.6155,1.6156,1.6192,0,0,0,1.5847,1.5851,1.5868,1.587,1.5911,1.5949,1.5913,1.5983,1.5991,1.6021,1.6029,1.6031,1.6155,1.6156,1.6189,1.6209,0,0,0,1.584,1.5851,1.5861,1.587,1.5898,1.5947,1.5956,1.5984,1.5992,1.6028,1.6031,1.6154,1.6156,1.6187,1.6205,1.6244,0,0,0,1.5834,1.5892,1.5862,1.5927,1.5897,1.5968,1.5955,1.6008,1.6043,1.603,1.6155,1.6156,1.6186,1.6203,1.6241,1.6277,1.6292,0,0,1.5908,1.5901,1.5939,1.5914,1.5991,1.5958,1.6041,1.6071,1.6074,1.6129,1.6132,1.619,1.6205,1.6243,1.6372,1.6383,0,0,0,1.5963,1.5991,1.6011,1.6043,1.6067,1.609,1.6108,1.612,1.6166,1.6102,1.6214,1.6223,1.6245,1.6262,1.6272,1.6292,1.6164,1.6164,1.6164,1.6069,1.6069,1.6133,1.614,1.6172,1.619,1.6216,1.6235,1.6225,1.6252,1.6269,1.6347,1.6367,1.6374,1.6395,1.6286,1.6287,1.6287,1.6287,1.6178,1.6218,1.6203,1.626,1.626,1.6308,1.6328,1.6319,1.6365,1.6334,1.6354,1.6321,1.6387,1.6405,1.6289,1.6289,1.6289,1.6288,1.6288,1.6249,1.6268,1.628,1.6327,1.6363,1.6369,1.6413,1.6411,1.641,1.6429,1.6448,1.6447,1.6447,1.6438,1.6438,1.6438,1.6439,1.6439,1.6439,1.6318,1.633,1.6367,1.6398,1.6419,1.6446,1.6464,1.6485,1.6507,1.6502,1.6503,1.6492,1.6393,1.6369,1.6443,1.6442,1.6442,1.6442,1.6441,1.643,1.6404,1.6461,1.6482,1.6518,1.6555,1.6551,1.6594,1.6611,1.6633,1.6617,1.6544,1.6537,1.6529,1.6509,1.6616,1.6616,1.6616,1.6616,1.649,1.6486,1.6545,1.6578,1.661,1.6613,1.6679,1.6694,1.6706,1.6716,1.67,1.6673,1.6665,1.6664,1.6653,1.6634,1.677,1.677,1.6771,1.656,1.6559,1.6615,1.6625,1.6653,1.6677,1.674,1.678,1.6788,1.6777,1.6725,1.6719,1.6675,1.6661,1.665,1.6633,1.6599,0,0]}]]